| time (UTC) | temp C | wind direction | speed KPH | gust KPH | rain 1hr cm | rain 24hr cm | rain mn cm | humidity % | barometer mb |
| 20260507100328 | 2 | 143 | 0.0 | 3.2 | 0.00 | 0.38 | 0.00 | 85 | 1016.3 |
| 20260507094814 | 1 | 84 | 0.0 | 0.0 | 0.00 | 0.61 | 0.00 | 88 | 1016.4 |
| 20260507093329 | 1 | 85 | 0.0 | 0.0 | 0.00 | 0.61 | 0.00 | 88 | 1016.4 |
| 20260507091819 | 1 | 89 | 0.0 | 0.0 | 0.00 | 0.61 | 0.00 | 89 | 1016.5 |
| 20260507090328 | 1 | 54 | 0.0 | 0.0 | 0.00 | 0.61 | 0.00 | 89 | 1016.3 |
| 20260507084815 | 1 | 94 | 0.0 | 0.0 | 0.00 | 0.76 | 0.00 | 90 | 1016.3 |
| 20260507083325 | 2 | 93 | 0.0 | 0.0 | 0.00 | 0.76 | 0.00 | 90 | 1016.3 |
| 20260507081812 | 2 | 68 | 0.0 | 0.0 | 0.00 | 0.76 | 0.00 | 91 | 1016.5 |
| 20260507080328 | 2 | 83 | 0.0 | 0.0 | 0.00 | 0.76 | 0.00 | 90 | 1016.2 |
| 20260507074840 | 2 | 67 | 0.0 | 0.0 | 0.00 | 0.99 | 0.00 | 91 | 1016.5 |
| 20260507073326 | 3 | 54 | 0.0 | 0.0 | 0.00 | 0.99 | 0.00 | 92 | 1016.6 |
| 20260507071818 | 3 | 32 | 0.0 | 0.0 | 0.00 | 0.99 | 0.00 | 92 | 1016.7 |
| 20260507070335 | 3 | 281 | 0.0 | 0.0 | 0.00 | 0.99 | 0.00 | 92 | 1016.7 |
| 20260507064816 | 4 | 281 | 0.0 | 0.0 | 0.00 | 1.45 | 0.00 | 92 | 1016.6 |
| 20260507063330 | 4 | 281 | 0.0 | 0.0 | 0.00 | 1.45 | 0.00 | 92 | 1016.4 |
| 20260507061817 | 5 | 281 | 0.0 | 0.0 | 0.00 | 1.45 | 0.00 | 92 | 1016.7 |
| 20260507060330 | 5 | 281 | 0.0 | 0.0 | 0.00 | 1.45 | 0.00 | 92 | 1016.7 |
| 20260507054811 | 5 | 281 | 0.0 | 0.0 | 0.00 | 1.70 | 0.00 | 92 | 1017.0 |
| 20260507053326 | 5 | 281 | 0.0 | 0.0 | 0.00 | 1.70 | 0.00 | 92 | 1017.3 |
| 20260507051816 | 5 | 281 | 0.0 | 0.0 | 0.00 | 1.70 | 0.00 | 91 | 1017.3 |
| 20260507050324 | 6 | 281 | 0.0 | 0.0 | 0.00 | 1.70 | 0.00 | 91 | 1017.3 |
| 20260507043314 | 6 | 276 | 0.0 | 1.6 | 0.00 | 1.91 | 0.00 | 91 | 1017.3 |
| 20260507041826 | 6 | 278 | 0.0 | 4.8 | 0.00 | 1.91 | 0.00 | 92 | 1017.2 |
| 20260507040313 | 6 | 277 | 0.0 | 0.0 | 0.00 | 1.91 | 0.00 | 92 | 1017.2 |
| 20260507034826 | 6 | 280 | 0.0 | 0.0 | 0.00 | 2.34 | 1.91 | 92 | 1017.1 |
| 20260507033343 | 6 | 267 | 0.0 | 0.0 | 0.00 | 2.34 | 1.91 | 92 | 1017.0 |
| 20260507031856 | 6 | 281 | 1.6 | 3.2 | 0.00 | 2.34 | 1.91 | 92 | 1017.0 |
| 20260507030326 | 6 | 285 | 0.0 | 3.2 | 0.00 | 2.34 | 1.91 | 92 | 1016.8 |
| 20260507024811 | 6 | 288 | 3.2 | 6.4 | 0.00 | 2.46 | 1.91 | 92 | 1016.8 |
| 20260507023325 | 6 | 294 | 3.2 | 6.4 | 0.00 | 2.46 | 1.91 | 92 | 1016.8 |
| 20260507021822 | 6 | 269 | 3.2 | 8.0 | 0.00 | 2.46 | 1.91 | 92 | 1016.9 |
| 20260507020357 | 6 | 301 | 6.4 | 11.3 | 0.00 | 2.46 | 1.91 | 92 | 1016.9 |
| 20260507014817 | 6 | 295 | 4.8 | 9.7 | 0.00 | 2.59 | 1.91 | 92 | 1016.9 |
| 20260507013332 | 6 | 321 | 3.2 | 9.7 | 0.00 | 2.59 | 1.91 | 92 | 1016.8 |
| 20260507011815 | 6 | 311 | 8.0 | 12.9 | 0.00 | 2.59 | 1.91 | 92 | 1016.8 |
| 20260507010330 | 6 | 328 | 4.8 | 12.9 | 0.00 | 2.59 | 1.91 | 92 | 1016.8 |
| 20260507004816 | 7 | 316 | 8.0 | 14.5 | 0.00 | 2.84 | 1.91 | 92 | 1016.5 |
| 20260507003329 | 7 | 323 | 6.4 | 14.5 | 0.00 | 2.84 | 1.91 | 92 | 1016.0 |
| 20260507001841 | 7 | 298 | 8.0 | 12.9 | 0.00 | 2.84 | 1.91 | 92 | 1015.8 |
| 20260507000314 | 7 | 304 | 6.4 | 22.5 | 0.00 | 2.84 | 1.91 | 92 | 1015.8 |
| 20260506234824 | 8 | 291 | 12.9 | 24.1 | 0.00 | 3.12 | 1.91 | 89 | 1015.5 |
| 20260506233338 | 9 | 263 | 8.0 | 20.9 | 0.00 | 3.12 | 1.91 | 89 | 1015.3 |
| 20260506231823 | 9 | 262 | 4.8 | 11.3 | 0.00 | 3.12 | 1.91 | 89 | 1014.9 |
| 20260506230334 | 9 | 205 | 3.2 | 6.4 | 0.00 | 3.12 | 1.91 | 88 | 1014.6 |
| 20260506224821 | 10 | 219 | 1.6 | 4.8 | 0.00 | 3.28 | 1.91 | 88 | 1014.6 |
| 20260506223333 | 10 | 166 | 3.2 | 4.8 | 0.00 | 3.28 | 1.91 | 87 | 1014.2 |
| 20260506221818 | 10 | 246 | 1.6 | 4.8 | 0.00 | 3.28 | 1.91 | 87 | 1014.3 |
| 20260506220333 | 10 | 150 | 1.6 | 4.8 | 0.00 | 3.28 | 1.91 | 88 | 1014.1 |
| 20260506214822 | 10 | 105 | 3.2 | 6.4 | 0.00 | 3.28 | 1.91 | 89 | 1014.1 |
| 20260506213316 | 10 | 246 | 0.0 | 0.0 | 0.00 | 3.28 | 1.91 | 91 | 1014.1 |
| 20260506211827 | 9 | 224 | 0.0 | 1.6 | 0.00 | 3.28 | 1.91 | 92 | 1014.2 |
| 20260506210316 | 9 | 246 | 1.6 | 4.8 | 0.00 | 3.28 | 1.91 | 89 | 1014.1 |
| 20260506204829 | 8 | 276 | 0.0 | 4.8 | 0.00 | 3.28 | 1.91 | 79 | 1014.3 |
| 20260506203344 | 8 | 302 | 0.0 | 4.8 | 0.00 | 3.28 | 1.91 | 77 | 1014.1 |
| 20260506201835 | 8 | 12 | 3.2 | 4.8 | 0.00 | 3.28 | 1.91 | 77 | 1014.3 |
| 20260506200323 | 8 | 263 | 0.0 | 1.6 | 0.00 | 3.28 | 1.91 | 77 | 1014.3 |
| 20260506194813 | 7 | 332 | 1.6 | 6.4 | 0.00 | 3.28 | 1.91 | 77 | 1014.3 |
| 20260506193343 | 7 | 329 | 0.0 | 4.8 | 0.00 | 3.28 | 1.91 | 77 | 1014.1 |
| 20260506191827 | 7 | 27 | 3.2 | 8.0 | 0.00 | 3.28 | 1.91 | 77 | 1014.1 |
| 20260506190339 | 7 | 313 | 3.2 | 8.0 | 0.00 | 3.28 | 1.91 | 78 | 1014.1 |
| 20260506184812 | 7 | 299 | 4.8 | 8.0 | 0.00 | 3.28 | 1.91 | 78 | 1014.3 |
| 20260506183321 | 7 | 308 | 4.8 | 9.7 | 0.00 | 3.28 | 1.91 | 77 | 1014.2 |
| 20260506181814 | 7 | 331 | 6.4 | 11.3 | 0.00 | 3.28 | 1.91 | 78 | 1014.0 |
| 20260506180321 | 7 | 17 | 6.4 | 11.3 | 0.00 | 3.28 | 1.91 | 78 | 1014.1 |
| 20260506174814 | 7 | 312 | 4.8 | 11.3 | 0.00 | 3.28 | 1.91 | 78 | 1014.1 |
| 20260506173320 | 7 | 327 | 6.4 | 9.7 | 0.00 | 3.28 | 1.91 | 78 | 1013.8 |
| 20260506171813 | 7 | 317 | 4.8 | 8.0 | 0.00 | 3.28 | 1.91 | 78 | 1013.7 |
| 20260506170326 | 7 | 24 | 4.8 | 11.3 | 0.00 | 3.28 | 1.91 | 78 | 1013.2 |
| 20260506164813 | 7 | 329 | 1.6 | 4.8 | 0.00 | 3.28 | 1.91 | 78 | 1013.3 |
| 20260506163329 | 7 | 329 | 3.2 | 4.8 | 0.00 | 3.28 | 1.91 | 78 | 1013.4 |
| 20260506161814 | 7 | 348 | 1.6 | 6.4 | 0.00 | 3.28 | 1.91 | 78 | 1013.2 |
| 20260506160327 | 7 | 16 | 1.6 | 4.8 | 0.03 | 3.28 | 1.91 | 78 | 1013.2 |
| 20260506154839 | 7 | 20 | 3.2 | 4.8 | 0.03 | 3.28 | 1.91 | 78 | 1013.3 |
| 20260506153350 | 7 | 64 | 3.2 | 4.8 | 0.05 | 3.28 | 1.91 | 78 | 1013.3 |
| 20260506151815 | 7 | 72 | 1.6 | 4.8 | 0.05 | 3.28 | 1.91 | 78 | 1013.2 |
| 20260506150329 | 7 | 60 | 3.2 | 6.4 | 0.03 | 3.25 | 1.88 | 78 | 1013.2 |
| 20260506144813 | 6 | 77 | 1.6 | 4.8 | 0.05 | 3.25 | 1.88 | 79 | 1013.2 |
| 20260506143328 | 6 | 64 | 4.8 | 8.0 | 0.05 | 3.23 | 1.85 | 79 | 1012.8 |
| 20260506141813 | 6 | 76 | 6.4 | 12.9 | 0.05 | 3.23 | 1.85 | 79 | 1012.6 |
| 20260506140312 | 6 | 57 | 6.4 | 8.0 | 0.05 | 3.23 | 1.85 | 79 | 1012.6 |
| 20260506134842 | 6 | 55 | 4.8 | 8.0 | 0.05 | 3.20 | 1.83 | 79 | 1012.6 |
| 20260506133352 | 6 | 86 | 3.2 | 9.7 | 0.03 | 3.17 | 1.80 | 79 | 1012.6 |
| 20260506130344 | 6 | 68 | 4.8 | 12.9 | 0.05 | 3.17 | 1.80 | 79 | 1012.4 |
| 20260506124835 | 6 | 96 | 6.4 | 11.3 | 0.05 | 3.15 | 1.78 | 79 | 1012.4 |
| 20260506123324 | 6 | 65 | 9.7 | 14.5 | 0.08 | 3.15 | 1.78 | 79 | 1012.7 |
| 20260506121836 | 6 | 54 | 8.0 | 14.5 | 0.08 | 3.15 | 1.78 | 79 | 1012.7 |
| 20260506120323 | 6 | 54 | 8.0 | 11.3 | 0.05 | 3.12 | 1.75 | 78 | 1012.9 |
| 20260506114833 | 6 | 68 | 9.7 | 12.9 | 0.05 | 3.10 | 1.73 | 78 | 1012.8 |
| 20260506113321 | 6 | 68 | 8.0 | 16.1 | 0.05 | 3.07 | 1.70 | 78 | 1012.4 |
| 20260506111812 | 6 | 61 | 8.0 | 14.5 | 0.10 | 3.07 | 1.70 | 78 | 1012.2 |
| 20260506110321 | 6 | 79 | 8.0 | 14.5 | 0.18 | 3.07 | 1.70 | 78 | 1012.2 |
| 20260506104812 | 6 | 73 | 9.7 | 17.7 | 0.20 | 3.05 | 1.68 | 78 | 1012.1 |
| 20260506103320 | 6 | 77 | 8.0 | 12.9 | 0.23 | 3.02 | 1.65 | 78 | 1012.3 |
| 20260506101811 | 6 | 50 | 11.3 | 16.1 | 0.25 | 2.97 | 1.60 | 78 | 1012.7 |